Total_Precipitation_Accumulation
0.16 0.17 0.15 0.14 0.14 0.16 0.19 0.22 0.23 0.23 0.23 0.21 0.19 0.16 0.13 0.13 0.15 0.19 0.22 0.27 0.34 0.42 0.51 0.51 0.51 0.62 0.70 0.65 0.63 0.64 0.68 0.74 0.73 0.70 0.83 0.87 0.76 0.57 0.50 0.52 0.52 0.53 0.44
0.13 0.15 0.14 0.15 0.15 0.15 0.15 0.17 0.22 0.27 0.27 0.25 0.23 0.20 0.15 0.11 0.13 0.16 0.17 0.21 0.30 0.40 0.55 0.71 0.72 0.67 0.65 0.64 0.64 0.65 0.70 0.82 0.82 0.74 0.79 0.87 0.83 0.72 0.61 0.52 0.45 0.46 0.49
0.13 0.16 0.17 0.16 0.16 0.17 0.17 0.14 0.15 0.19 0.25 0.26 0.25 0.24 0.21 0.18 0.16 0.14 0.14 0.17 0.21 0.27 0.40 0.63 0.81 0.95 0.87 0.69 0.60 0.58 0.65 0.80 0.90 0.84 0.83 0.96 0.99 0.89 0.72 0.57 0.46 0.43 0.42
0.17 0.20 0.21 0.21 0.21 0.21 0.20 0.20 0.20 0.19 0.21 0.24 0.27 0.28 0.26 0.23 0.20 0.18 0.19 0.19 0.19 0.21 0.28 0.38 0.51 0.72 0.89 0.95 0.82 0.69 0.68 0.76 0.85 0.87 0.98 1.20 1.23 1.11 0.85 0.67 0.58 0.50 0.44
0.34 0.38 0.40 0.35 0.33 0.33 0.31 0.30 0.31 0.30 0.29 0.34 0.38 0.36 0.34 0.30 0.24 0.24 0.28 0.24 0.26 0.24 0.26 0.29 0.31 0.39 0.53 0.71 0.82 0.89 0.87 0.80 0.84 0.91 1.13 1.55 1.58 1.33 0.96 0.76 0.69 0.65 0.56
0.51 0.59 0.61 0.61 0.59 0.56 0.50 0.44 0.44 0.48 0.54 0.57 0.58 0.58 0.54 0.42 0.37 0.34 0.32 0.31 0.34 0.36 0.36 0.36 0.32 0.30 0.34 0.44 0.56 0.70 0.85 0.89 0.89 0.94 1.13 1.43 1.59 1.49 1.24 1.03 0.80 0.66 0.60
0.60 0.62 0.64 0.65 0.63 0.64 0.66 0.65 0.62 0.66 0.70 0.72 0.72 0.73 0.70 0.67 0.56 0.43 0.36 0.36 0.38 0.41 0.47 0.51 0.37 0.26 0.33 0.38 0.45 0.51 0.58 0.68 0.80 0.89 1.02 1.22 1.50 1.64 1.48 1.11 0.94 0.84 0.67
0.64 0.65 0.68 0.72 0.74 0.74 0.70 0.66 0.65 0.66 0.66 0.65 0.65 0.66 0.72 0.69 0.62 0.47 0.40 0.39 0.42 0.43 0.48 0.52 0.49 0.39 0.38 0.42 0.46 0.44 0.43 0.44 0.51 0.63 0.76 0.98 1.27 1.59 1.74 1.50 1.29 1.13 0.92
0.63 0.68 0.74 0.79 0.82 0.73 0.63 0.63 0.62 0.62 0.57 0.52 0.50 0.54 0.62 0.67 0.63 0.51 0.48 0.45 0.45 0.45 0.47 0.50 0.52 0.48 0.39 0.32 0.37 0.38 0.38 0.38 0.38 0.43 0.54 0.73 0.98 1.29 1.63 1.76 1.47 1.12 0.97
0.60 0.61 0.63 0.66 0.75 0.79 0.71 0.69 0.68 0.68 0.63 0.58 0.54 0.56 0.59 0.70 0.69 0.55 0.52 0.48 0.50 0.52 0.62 0.65 0.59 0.51 0.42 0.30 0.31 0.36 0.35 0.33 0.38 0.40 0.42 0.50 0.65 0.90 1.24 1.44 1.44 1.14 0.91
0.39 0.39 0.43 0.50 0.57 0.60 0.64 0.65 0.67 0.66 0.63 0.59 0.54 0.51 0.53 0.60 0.68 0.58 0.51 0.51 0.55 0.62 0.69 0.78 0.74 0.59 0.42 0.31 0.29 0.31 0.28 0.33 0.41 0.45 0.46 0.51 0.65 0.82 0.99 1.21 1.34 1.25 1.00
0.32 0.33 0.36 0.38 0.39 0.40 0.48 0.52 0.56 0.58 0.57 0.54 0.52 0.49 0.51 0.49 0.48 0.50 0.39 0.36 0.43 0.55 0.66 0.83 0.87 0.71 0.53 0.39 0.32 0.28 0.25 0.26 0.33 0.38 0.41 0.43 0.51 0.64 0.82 1.08 1.29 1.30 1.15
0.32 0.32 0.33 0.32 0.31 0.34 0.39 0.41 0.42 0.45 0.43 0.39 0.36 0.41 0.46 0.47 0.42 0.35 0.29 0.23 0.27 0.44 0.59 0.84 0.94 0.81 0.68 0.54 0.43 0.38 0.32 0.28 0.30 0.33 0.31 0.31 0.36 0.48 0.69 1.02 1.37 1.49 1.38
0.32 0.30 0.29 0.30 0.31 0.36 0.43 0.44 0.46 0.45 0.39 0.33 0.31 0.36 0.39 0.41 0.40 0.39 0.37 0.29 0.28 0.40 0.48 0.62 0.77 0.83 0.76 0.70 0.59 0.47 0.38 0.34 0.33 0.35 0.34 0.37 0.46 0.57 0.70 0.84 1.16 1.39 1.42
0.35 0.32 0.31 0.31 0.33 0.35 0.39 0.41 0.37 0.37 0.30 0.28 0.30 0.38 0.40 0.40 0.34 0.30 0.36 0.38 0.39 0.44 0.46 0.59 0.75 0.87 0.90 0.87 0.83 0.73 0.62 0.55 0.49 0.46 0.52 0.54 0.59 0.65 0.68 0.77 0.98 1.18 1.18
0.40 0.34 0.31 0.31 0.34 0.36 0.36 0.36 0.30 0.21 0.19 0.18 0.19 0.24 0.28 0.25 0.18 0.14 0.19 0.24 0.26 0.29 0.35 0.52 0.70 0.87 1.00 1.04 1.08 1.02 0.91 0.82 0.73 0.71 0.73 0.70 0.69 0.73 0.75 0.77 0.90 1.05 1.05
0.38 0.34 0.30 0.29 0.31 0.31 0.31 0.35 0.38 0.32 0.17 0.13 0.15 0.16 0.19 0.16 0.13 0.14 0.16 0.20 0.20 0.19 0.24 0.42 0.58 0.73 0.91 1.06 1.09 1.06 0.98 0.96 0.97 0.95 0.94 0.90 0.84 0.83 0.86 0.84 0.85 0.97 1.03
0.33 0.31 0.29 0.30 0.31 0.29 0.27 0.29 0.35 0.43 0.41 0.31 0.22 0.18 0.18 0.15 0.18 0.21 0.20 0.21 0.20 0.19 0.23 0.39 0.52 0.66 0.81 0.99 1.04 1.05 1.07 1.09 1.10 1.05 1.07 1.07 1.03 0.97 0.96 0.94 0.90 0.90 0.99
0.29 0.25 0.22 0.21 0.24 0.26 0.27 0.29 0.33 0.37 0.44 0.50 0.42 0.25 0.22 0.21 0.28 0.35 0.28 0.29 0.32 0.31 0.32 0.38 0.46 0.58 0.75 0.93 1.06 1.11 1.14 1.13 1.12 1.13 1.13 1.14 1.16 1.10 1.00 0.99 1.03 1.01 0.99
0.22 0.21 0.16 0.12 0.15 0.23 0.29 0.31 0.32 0.36 0.43 0.53 0.50 0.34 0.29 0.31 0.47 0.57 0.45 0.47 0.49 0.47 0.47 0.52 0.55 0.61 0.79 0.95 1.08 1.17 1.22 1.19 1.15 1.16 1.17 1.18 1.18 1.15 1.05 1.04 1.11 1.09 0.97
0.17 0.15 0.13 0.09 0.15 0.24 0.29 0.30 0.31 0.38 0.47 0.56 0.52 0.34 0.29 0.38 0.63 0.74 0.69 0.68 0.67 0.64 0.63 0.61 0.56 0.60 0.75 0.91 1.02 1.13 1.22 1.21 1.14 1.12 1.19 1.23 1.16 1.11 1.06 1.07 1.11 1.16 1.10
0.17 0.16 0.15 0.14 0.21 0.26 0.25 0.32 0.42 0.50 0.55 0.60 0.55 0.41 0.39 0.52 0.73 0.79 0.75 0.74 0.74 0.72 0.68 0.65 0.61 0.63 0.74 0.89 0.96 1.06 1.19 1.21 1.17 1.16 1.22 1.30 1.25 1.15 1.11 1.09 1.09 1.17 1.22
0.22 0.21 0.19 0.21 0.27 0.27 0.29 0.38 0.50 0.56 0.58 0.60 0.59 0.58 0.60 0.68 0.74 0.78 0.76 0.72 0.70 0.72 0.74 0.77 0.77 0.77 0.83 0.93 0.98 1.05 1.20 1.20 1.16 1.17 1.21 1.24 1.22 1.17 1.15 1.11 1.09 1.15 1.19
0.18 0.21 0.21 0.20 0.22 0.26 0.32 0.36 0.42 0.47 0.49 0.51 0.54 0.56 0.59 0.62 0.67 0.68 0.69 0.69 0.70 0.73 0.76 0.83 0.85 0.86 0.89 0.93 0.95 0.96 1.05 1.05 0.98 0.96 1.00 1.07 1.08 1.09 1.09 1.06 1.02 1.04 1.08
0.19 0.21 0.22 0.23 0.22 0.25 0.30 0.35 0.41 0.45 0.50 0.50 0.50 0.53 0.56 0.56 0.60 0.64 0.68 0.70 0.69 0.71 0.71 0.72 0.76 0.79 0.78 0.74 0.77 0.80 0.84 0.79 0.74 0.74 0.84 0.93 0.94 0.93 0.93 0.91 0.90 0.95 1.03
0.20 0.24 0.28 0.32 0.31 0.30 0.33 0.40 0.45 0.46 0.48 0.47 0.51 0.54 0.59 0.62 0.61 0.65 0.67 0.66 0.65 0.67 0.65 0.67 0.69 0.65 0.64 0.63 0.59 0.60 0.58 0.55 0.56 0.60 0.65 0.73 0.80 0.81 0.82 0.84 0.83 0.87 0.93